Location: Most
(50.5330°N, 13.6500°E)
Time: 06:11:33
(UTC+01:00)

N. Korean satellite - Pass Details

Date: 01 November 2021
Orbit: 446 x 495 km, 97.3° (Epoch: 04 December)

Event Time Altitude Azimuth Distance (km) Brightness Sun altitude
Rises 05:52:32 0° 9° (N) 2,589 10.2 -10.6°
Reaches altitude 10° 05:54:40 10° 4° (N) 1,696 9.3 -10.3°
Maximum altitude 05:58:13 52° 288° (WNW) 618 6.7 -9.7°
Drops below altitude 10° 06:01:41 10° 212° (SSW) 1,659 9.1 -9.2°
Sets 06:03:45 0° 207° (SSW) 2,524 10.0 -8.8°
